sat.trackr.live / text

‹ back to catalog

INTELSAT 17 (IS-17)

NORAD 37238 · 2010-065B

PAYLOAD ACTIVE UNKNOWN

§ Identity

Operator
Country
ITSO
Launch date
2010-11-26
Launch site
FRGUI
Launch vehicle
Mass (kg)
RCS (m²)
6.31

Purposes: comms

External: N2YO · Heavens-Above · Gunter

§ Orbital elements

Epoch: 2026-05-25T04:12:38.752128Z

Period
1,436.08 min
Inclination
0.0066°
Eccentricity
0.0002532
Mean motion
1.00272776 rev/d
Perigee alt
35,775.6 km
Apogee alt
35,797.0 km
Semi-major
42,164.5 km
B*
0.0000e+0
RAAN
281.6341°
Arg perigee
140.2860°
Mean anomaly
310.0173°
Rev number
5,301

§ Raw data

INTELSAT 17 (IS-17)1 37238U 10065B   26145.17544852 -.00000004  00000+0  00000+0 0  99922 37238   0.0066 281.6341 0002532 140.2860 310.0173  1.00272776 53011

JSON: /api/v1/satellites/37238 · /tle

For live sub-satellite position, see the globe view (requires WebGL).

§ Visibility from observer

Set your observer location to see the next 7 days of passes ≥ 10°. The values pass through the URL so the page stays shareable.

No JS? Fill the form by hand. The geolocation button needs JavaScript.